Location: Bear Trap Landing
(45.2437°N, 67.7928°W)
Time: 18:56:25
(UTC+00:00)

Envisat - Pass Details

Date: 05 March 2021
Orbit: 764 x 766 km, 98.1° (Epoch: 21 April)

Event Time Altitude Azimuth Distance (km) Brightness Sun altitude
Rises 08:45:52 0° 32° (NNE) 3,243 7.0 -24.5°
Reaches altitude 10° 08:49:32 10° 60° (ENE) 2,309 6.5 -23.9°
Maximum altitude 08:51:54 13° 88° (E) 2,087 6.2 -23.5°
Drops below altitude 10° 08:54:16 10° 116° (ESE) 2,300 6.1 -23.1°
Sets 08:57:52 0° 143° (SE) 3,219 6.5 -22.5°
